(338596) = 2003 SB157

Discovered at Anderson Mesa on 2003-09-19 by LONEOS.

Orbit

Orbit type: Main Belt

Note: WebGL enabled browser required.

epoch2023-09-13.0
epoch JD2460200.5
perihelion date2021-07-12.60243
perihelion JD2459408.10243
argument of perihelion (°)225.59636
ascending node (°)183.44623
inclination (°)17.80475
eccentricity0.2059704
perihelion distance (AU)2.1226973
Tisserand w.r.t. Jupiter3.3
ΔV w.r.t. Earth (km/sec)10.6
semimajor axis (AU)2.6733225
mean anomaly (°)178.67753
mean daily motion (°/day)0.22548980
aphelion distance (AU)3.224
period (years)4.37
P-vector [x]0.65755475
P-vector [y]0.74843784
P-vector [z]0.08638608
Q-vector [x]-0.75318252
Q-vector [y]0.65582091
Q-vector [z]0.05113738
absolute magnitude16.34
phase slope0.15
uncertainty0
referenceMPEC 2023-Y06
observations used311
oppositions15
arc length (days)7185
first opposition used2003
last opposition used2023
residual rms (arc-secs)0.73
perturbers coarse indicatorM-v
perturbers precise indicator003Ek
first observation date used2003-09-19.0
last observation date used2023-05-22.0
computer nameMPCLINUX
JD of orbit computation2456760.666932
perihelion JD uncertainty (days)4.8107E-05
argument of perihelion uncertainty (°)2.1377E-05
ascending node uncertainty (°)1.6973E-05
inclination uncertainty (°)7.3241E-06
eccentricity uncertainty 9.4779E-08
perihelion distance uncertainty (AU)2.4132E-07
Minimum Orbit Intersection Distances (in AU)
for orbit epoch: 2460200.5, reference: E2023-Y06
Mercury1.8098
Venus1.41527
Earth1.16306
Mars0.74345
Jupiter2.31249
Saturn6.56304
Uranus15.4455
Neptune27.5275

Observations

313 total observations over interval: 2003 09 19.38999 – 2023 05 22.255951
These data are available for download (format description).

Date (UT) J2000 RA J2000 Dec Magn Location Ref
2003 09 19.38999 01 02 41.77 +04 36 54.4 18.8 R 699 – Lowell Observatory-LONEOS MPS 85519
2003 09 19.40327 01 02 41.39 +04 36 42.6   699 – Lowell Observatory-LONEOS MPS 85519
2003 09 19.41659 01 02 41.02 +04 36 31.1   699 – Lowell Observatory-LONEOS MPS 85519
2003 09 19.42980 01 02 40.70 +04 36 20.7   699 – Lowell Observatory-LONEOS MPS 85519
2003 09 21.39194 01 01 46.30 +04 07 20.5 19.5 V 691 – Steward Observatory, Kitt Peak-Spacewatch MPS 85519
2003 09 21.41809 01 01 45.48 +04 06 56.9 19.0 V 691 – Steward Observatory, Kitt Peak-Spacewatch MPS 85519
2003 09 21.44469 01 01 44.66 +04 06 33.0 19.1 V 691 – Steward Observatory, Kitt Peak-Spacewatch MPS 85519
2003 09 23.42586 01 00 45.34 +03 36 34.8 19.2   644 – Palomar Mountain/NEAT MPS 172826
2003 09 23.43737 01 00 44.95 +03 36 23.9 18.8   644 – Palomar Mountain/NEAT MPS 172826
2003 09 23.44866 01 00 44.59 +03 36 13.7 18.6   644 – Palomar Mountain/NEAT MPS 172826
2003 09 26.23499 00 59 14.97 +02 53 04.1 18.4   704 – Lincoln Laboratory ETS, New Mexico MPS 86322
2003 09 26.24747 00 59 14.55 +02 52 52.6 18.5   704 – Lincoln Laboratory ETS, New Mexico MPS 86322
2003 09 26.26037 00 59 14.10 +02 52 40.3 18.3   704 – Lincoln Laboratory ETS, New Mexico MPS 86322
2003 09 26.27274 00 59 13.64 +02 52 29.1 18.7   704 – Lincoln Laboratory ETS, New Mexico MPS 86322
2003 09 26.28545 00 59 13.22 +02 52 17.1 19.0   704 – Lincoln Laboratory ETS, New Mexico MPS 86322
2003 09 28.23544 00 58 06.32 +02 21 31.5 18.9   704 – Lincoln Laboratory ETS, New Mexico MPS 86322
2003 09 28.24883 00 58 05.80 +02 21 19.1 19.4   704 – Lincoln Laboratory ETS, New Mexico MPS 86322
2003 09 28.25799 00 58 05.52 +02 21 09.9 18.5 R 699 – Lowell Observatory-LONEOS MPS 87057
2003 09 28.26154 00 58 05.31 +02 21 06.9 19.0   704 – Lincoln Laboratory ETS, New Mexico MPS 86322
2003 09 28.27128 00 58 04.98 +02 20 57.7   699 – Lowell Observatory-LONEOS MPS 87057
2003 09 28.27414 00 58 04.85 +02 20 54.7 18.8   704 – Lincoln Laboratory ETS, New Mexico MPS 86322
2003 09 28.28458 00 58 04.49 +02 20 44.6   699 – Lowell Observatory-LONEOS MPS 87057
2003 09 28.28709 00 58 04.34 +02 20 42.4 18.2   704 – Lincoln Laboratory ETS, New Mexico MPS 86322
2003 09 28.29793 00 58 03.98 +02 20 32.0   699 – Lowell Observatory-LONEOS MPS 87057
2003 09 29.23813 00 57 30.78 +02 05 35.5 19.6   704 – Lincoln Laboratory ETS, New Mexico MPS 87057
2003 09 29.25088 00 57 30.31 +02 05 23.5 19.3   704 – Lincoln Laboratory ETS, New Mexico MPS 87057
2003 09 29.26391 00 57 29.85 +02 05 10.8 19.0   704 – Lincoln Laboratory ETS, New Mexico MPS 87057
2003 09 29.27631 00 57 29.39 +02 04 59.2 19.3   704 – Lincoln Laboratory ETS, New Mexico MPS 87057
2003 09 30.22784 00 56 55.15 +01 49 46.0 18.3   704 – Lincoln Laboratory ETS, New Mexico MPS 87057
2003 09 30.25255 00 56 54.21 +01 49 24.0 18.5   704 – Lincoln Laboratory ETS, New Mexico MPS 87057
2003 09 30.26481 00 56 53.76 +01 49 11.0 18.4   704 – Lincoln Laboratory ETS, New Mexico MPS 87057
2003 09 30.27748 00 56 53.27 +01 48 58.5 19.1   704 – Lincoln Laboratory ETS, New Mexico MPS 87057
2003 10 01.17212 00 56 20.82 +01 34 38.5 18.3 R 699 – Lowell Observatory-LONEOS MPS 87057
2003 10 01.18710 00 56 20.18 +01 34 23.7   699 – Lowell Observatory-LONEOS MPS 87057
2003 10 01.20208 00 56 19.62 +01 34 09.5   699 – Lowell Observatory-LONEOS MPS 87057
2003 10 01.21710 00 56 19.01 +01 33 55.8   699 – Lowell Observatory-LONEOS MPS 87057
2003 10 16.01059 00 46 58.70 -02 18 53.0 18.4 R 106 – Crni Vrh MPS 87348
2003 10 16.01646 00 46 58.48 -02 18 57.1 18.2 R 106 – Crni Vrh MPS 87348
2003 10 16.02233 00 46 58.21 -02 19 01.6 18.6 R 106 – Crni Vrh MPS 87348
2003 10 19.25678 00 45 04.09 -03 06 01.0 18.5   704 – Lincoln Laboratory ETS, New Mexico MPS 88209
2003 10 19.26824 00 45 03.67 -03 06 10.8 18.9   704 – Lincoln Laboratory ETS, New Mexico MPS 88209
2003 10 19.27957 00 45 03.26 -03 06 20.4 19.1   704 – Lincoln Laboratory ETS, New Mexico MPS 88209
2003 10 19.29094 00 45 02.82 -03 06 30.8 19.0   704 – Lincoln Laboratory ETS, New Mexico MPS 88209
2003 10 19.30233 00 45 02.40 -03 06 40.2 18.9   704 – Lincoln Laboratory ETS, New Mexico MPS 88209
2003 10 27.19157 00 41 02.10 -04 50 17.8 18.8   704 – Lincoln Laboratory ETS, New Mexico MPS 89475
2003 10 27.20338 00 41 01.70 -04 50 25.8 19.0   704 – Lincoln Laboratory ETS, New Mexico MPS 89475
2003 10 27.21542 00 41 01.37 -04 50 34.0 18.9   704 – Lincoln Laboratory ETS, New Mexico MPS 89475
2003 10 27.22739 00 41 01.08 -04 50 43.0 19.1   704 – Lincoln Laboratory ETS, New Mexico MPS 89475
2003 10 27.23964 00 41 00.71 -04 50 51.7 18.9   704 – Lincoln Laboratory ETS, New Mexico MPS 89475
2005 03 09.16426 10 47 25.77 -01 52 36.0 20.3 V 691 – Steward Observatory, Kitt Peak-Spacewatch MPS 202337
2005 03 09.21823 10 47 23.22 -01 52 00.8 20.3 V 691 – Steward Observatory, Kitt Peak-Spacewatch MPS 202337
2005 03 09.24425 10 47 22.00 -01 51 43.8 20.0 V 691 – Steward Observatory, Kitt Peak-Spacewatch MPS 202337
2005 03 10.33343 10 46 32.16 -01 39 44.3 19.5 R 703 – Catalina Sky Survey MPS 172826
2005 03 10.34296 10 46 31.76 -01 39 38.9 19.4 R 703 – Catalina Sky Survey MPS 172826
2005 03 10.35245 10 46 31.33 -01 39 33.2 20.2 R 703 – Catalina Sky Survey MPS 172826
2005 03 10.36186 10 46 30.87 -01 39 25.7 19.6 R 703 – Catalina Sky Survey MPS 172826
2006 04 19.43986 16 06 35.83 -02 19 32.2 21.5 V 691 – Steward Observatory, Kitt Peak-Spacewatch MPS 172826
2006 04 19.45720 16 06 35.26 -02 19 24.0 21.3 V 691 – Steward Observatory, Kitt Peak-Spacewatch MPS 172826
2006 04 19.47449 16 06 34.70 -02 19 15.9 21.3 V 691 – Steward Observatory, Kitt Peak-Spacewatch MPS 172826
2006 04 30.42909 15 59 55.19 -00 55 56.8 21.2 V 691 – Steward Observatory, Kitt Peak-Spacewatch MPS 172826
2006 04 30.44639 15 59 54.40 -00 55 49.6 20.8 V 691 – Steward Observatory, Kitt Peak-Spacewatch MPS 172826
2006 04 30.46369 15 59 53.69 -00 55 41.6 21.1 V 691 – Steward Observatory, Kitt Peak-Spacewatch MPS 172826
2006 06 15.19520 15 25 41.00 +02 17 38.7   691 – Steward Observatory, Kitt Peak-Spacewatch MPS 173891
2006 06 15.20804 15 25 40.51 +02 17 39.3   691 – Steward Observatory, Kitt Peak-Spacewatch MPS 173891
2006 06 15.22089 15 25 40.06 +02 17 39.8   691 – Steward Observatory, Kitt Peak-Spacewatch MPS 173891
2007 08 22.83930 20 55 35.36 +03 06 11.0 20.2 V 941 – Observatorio Pla D'Arguines MPS 213698
2007 08 22.84155 20 55 35.27 +03 06 09.6 20.1 V 941 – Observatorio Pla D'Arguines MPS 213698
2007 08 22.84381 20 55 35.16 +03 06 07.9 20.1 V 941 – Observatorio Pla D'Arguines MPS 213698
2007 08 22.84607 20 55 35.08 +03 06 06.3 20.2 V 941 – Observatorio Pla D'Arguines MPS 213698
2010 03 19.40602 14 31 05.24 -05 02 52.6 21.0 V 691 – Steward Observatory, Kitt Peak-Spacewatch MPS 317865
2010 03 19.42369 14 31 04.81 -05 02 44.3 20.9 V 691 – Steward Observatory, Kitt Peak-Spacewatch MPS 317865
2010 03 19.44137 14 31 04.42 -05 02 35.9 21.2 V 691 – Steward Observatory, Kitt Peak-Spacewatch MPS 317865
2010 04 10.22245 14 18 48.38 -01 55 04.9 20.8 V 691 – Steward Observatory, Kitt Peak-Spacewatch MPS 322183
2010 04 10.24014 14 18 47.59 -01 54 55.9 20.8 V 691 – Steward Observatory, Kitt Peak-Spacewatch MPS 322183
2010 04 10.25784 14 18 46.80 -01 54 46.5 21.1 V 691 – Steward Observatory, Kitt Peak-Spacewatch MPS 322183
2011 07 09.36176 18 40 05.701 +03 28 58.32 20.2 r F51 – Pan-STARRS 1, Haleakala MPS 387188
2011 07 09.37157 18 40 05.168 +03 28 56.92 20.4 r F51 – Pan-STARRS 1, Haleakala MPS 387188
2012 10 11.33241 04 33 05.68 +02 24 24.9 19.2 V 703 – Catalina Sky Survey MPS 435009
2012 10 11.34035 04 33 05.76 +02 24 18.3 19.2 V 703 – Catalina Sky Survey MPS 435009
2012 10 11.34833 04 33 05.83 +02 24 11.4 19.6 V 703 – Catalina Sky Survey MPS 435009
2012 10 11.35627 04 33 05.86 +02 24 03.2 19.3 V 703 – Catalina Sky Survey MPS 435009
2012 10 13.548813 04 33 31.094 +01 53 04.02 20.2 g F51 – Pan-STARRS 1, Haleakala MPS 435009
2012 10 13.573985 04 33 31.239 +01 52 41.97 20.0 r F51 – Pan-STARRS 1, Haleakala MPS 435009
2012 10 13.585684 04 33 31.335 +01 52 32.39 19.7 r F51 – Pan-STARRS 1, Haleakala MPS 435009
2012 11 09.47804 04 26 16.861 -04 21 41.10 19.3 g F51 – Pan-STARRS 1, Haleakala MPS 443313
2012 11 09.49184 04 26 16.287 -04 21 51.36 19.3 g F51 – Pan-STARRS 1, Haleakala MPS 443313
